When you browse on this site, cookies collect data to enhance your experience and personalize the content and advertising you see.
Visit our Privacy Policy to learn more. By continuing to use the site, you agree to this use of cookies and data.
  • In Sweden
  • List of Countries
  • For 7 days
  • Water Temperature
  • Weather Map
  • Weather Widgets
  • user-avatar
    Login

    Hourly Weather Aguililla

    Today, 18 November, Monday

    Time Temperature Precipitation Wind Pressure Humidity
    00:00 +19°C° 0 mm 1 mps 658 mmHg 87%
    01:00 +18°C° 0 mm 1 mps 658 mmHg 87%
    02:00 +18°C° 0 mm 1 mps 658 mmHg 87%
    03:00 +18°C° 0 mm 1 mps 658 mmHg 86%
    04:00 +19°C° 0 mm 1 mps 658 mmHg 86%
    05:00 +19°C° 0 mm 1 mps 658 mmHg 85%
    06:00 +18°C° 0 mm 0 mps 659 mmHg 83%
    07:00 +19°C° 0 mm 0 mps 660 mmHg 82%
    08:00 +20°C° 0 mm 0 mps 660 mmHg 80%
    09:00 +22°C° 0 mm 0 mps 660 mmHg 73%
    10:00 +24°C° 0 mm 0 mps 661 mmHg 66%
    11:00 +25°C° 0 mm 0 mps 661 mmHg 60%
    12:00 +27°C° 0.4 mm 1 mps 660 mmHg 63%
    13:00 +26°C° 0.4 mm 1 mps 659 mmHg 67%
    14:00 +26°C° 0.4 mm 1 mps 659 mmHg 71%
    15:00 +25°C° 1 mm 1 mps 658 mmHg 77%
    16:00 +23°C° 1 mm 1 mps 658 mmHg 82%
    17:00 +22°C° 1 mm 1 mps 658 mmHg 88%
    18:00 +21°C° 0.3 mm 1 mps 658 mmHg 88%
    19:00 +21°C° 0.3 mm 1 mps 659 mmHg 88%
    20:00 +20°C° 0.3 mm 1 mps 659 mmHg 88%
    21:00 +20°C° 0 mm 1 mps 659 mmHg 87%
    22:00 +19°C° 0 mm 1 mps 659 mmHg 87%
    23:00 +19°C° 0 mm 1 mps 659 mmHg 86%

    Tomorrow, 19 November, Tuesday

    Time Temperature Precipitation Wind Pressure Humidity
    00:00 +19°C° 0 mm 1 mps 658 mmHg 85%
    01:00 +19°C° 0 mm 1 mps 658 mmHg 85%
    02:00 +16°C° 0 mm 0 mps 658 mmHg 85%
    03:00 +16°C° 0 mm 0 mps 658 mmHg 85%
    04:00 +16°C° 0 mm 0 mps 658 mmHg 84%
    05:00 +16°C° 0 mm 0 mps 658 mmHg 84%
    06:00 +17°C° 0 mm 0 mps 658 mmHg 82%
    07:00 +19°C° 0 mm 0 mps 659 mmHg 80%
    08:00 +20°C° 0 mm 0 mps 660 mmHg 79%
    09:00 +22°C° 0 mm 0 mps 660 mmHg 73%
    10:00 +23°C° 0 mm 0 mps 661 mmHg 67%
    11:00 +27°C° 0 mm 1 mps 661 mmHg 61%
    12:00 +27°C° 0.3 mm 1 mps 660 mmHg 65%
    13:00 +27°C° 0.3 mm 1 mps 660 mmHg 69%
    14:00 +26°C° 0.3 mm 1 mps 659 mmHg 73%
    15:00 +25°C° 0.6 mm 1 mps 659 mmHg 79%
    16:00 +23°C° 0.6 mm 1 mps 659 mmHg 85%
    17:00 +22°C° 0.6 mm 1 mps 658 mmHg 91%
    18:00 +21°C° 0.1 mm 1 mps 659 mmHg 92%
    19:00 +21°C° 0.1 mm 1 mps 659 mmHg 92%
    20:00 +20°C° 0.1 mm 1 mps 659 mmHg 93%
    21:00 +20°C° 0.1 mm 1 mps 659 mmHg 93%
    22:00 +20°C° 0.1 mm 1 mps 659 mmHg 93%
    23:00 +20°C° 0.1 mm 1 mps 659 mmHg 93%

    Day after tomorrow, 20 November, Wednesday

    Time Temperature Precipitation Wind Pressure Humidity
    00:00 +17°C° 0.1 mm 0 mps 659 mmHg 93%
    01:00 +17°C° 0.1 mm 0 mps 659 mmHg 93%
    02:00 +17°C° 0.1 mm 0 mps 659 mmHg 93%
    03:00 +16°C° 0 mm 0 mps 658 mmHg 93%
    04:00 +16°C° 0 mm 0 mps 658 mmHg 93%
    05:00 +16°C° 0 mm 0 mps 658 mmHg 92%
    06:00 +17°C° 0 mm 0 mps 659 mmHg 90%
    07:00 +19°C° 0 mm 0 mps 660 mmHg 87%
    08:00 +20°C° 0 mm 0 mps 661 mmHg 85%
    09:00 +22°C° 0 mm 0 mps 661 mmHg 79%
    10:00 +23°C° 0 mm 0 mps 661 mmHg 72%
    11:00 +27°C° 0 mm 1 mps 661 mmHg 66%
    12:00 +26°C° 0.5 mm 1 mps 661 mmHg 69%
    13:00 +24°C° 0.5 mm 0 mps 660 mmHg 72%
    14:00 +24°C° 0.5 mm 0 mps 659 mmHg 75%
    15:00 +22°C° 1.1 mm 0 mps 659 mmHg 80%
    16:00 +23°C° 1.1 mm 1 mps 659 mmHg 85%
    17:00 +22°C° 1.1 mm 1 mps 659 mmHg 90%
    18:00 +21°C° 0.7 mm 1 mps 659 mmHg 91%
    19:00 +21°C° 0.7 mm 1 mps 659 mmHg 91%
    20:00 +20°C° 0.7 mm 1 mps 660 mmHg 92%
    21:00 +20°C° 0 mm 1 mps 660 mmHg 92%
    22:00 +19°C° 0 mm 1 mps 660 mmHg 92%
    23:00 +19°C° 0 mm 1 mps 660 mmHg 92%

    21 November, Thursday

    Time Temperature Precipitation Wind Pressure Humidity
    00:00 +17°C° 0 mm 0 mps 659 mmHg 92%
    01:00 +17°C° 0 mm 0 mps 659 mmHg 92%
    02:00 +16°C° 0 mm 0 mps 659 mmHg 92%
    03:00 +16°C° 0 mm 0 mps 659 mmHg 92%
    04:00 +16°C° 0 mm 0 mps 659 mmHg 93%
    05:00 +16°C° 0 mm 0 mps 659 mmHg 93%
    06:00 +17°C° 0 mm 0 mps 659 mmHg 92%
    07:00 +18°C° 0 mm 0 mps 660 mmHg 90%
    08:00 +19°C° 0 mm 0 mps 660 mmHg 89%
    09:00 +21°C° 0 mm 0 mps 661 mmHg 82%
    10:00 +23°C° 0 mm 0 mps 661 mmHg 75%
    11:00 +24°C° 0 mm 0 mps 661 mmHg 69%
    12:00 +24°C° 0.1 mm 0 mps 661 mmHg 69%
    13:00 +24°C° 0.1 mm 0 mps 660 mmHg 69%
    14:00 +24°C° 0.1 mm 0 mps 659 mmHg 70%
    15:00 +23°C° 0.2 mm 0 mps 659 mmHg 76%
    16:00 +21°C° 0.2 mm 0 mps 659 mmHg 82%
    17:00 +20°C° 0.2 mm 0 mps 659 mmHg 89%
    18:00 +20°C° 0.1 mm 0 mps 659 mmHg 90%
    19:00 +21°C° 0.1 mm 1 mps 659 mmHg 91%
    20:00 +20°C° 0.1 mm 1 mps 659 mmHg 93%
    21:00 +20°C° 0 mm 1 mps 659 mmHg 93%
    22:00 +20°C° 0 mm 1 mps 660 mmHg 93%
    23:00 +18°C° 0 mm 0 mps 660 mmHg 93%

    22 November, Friday

    Time Temperature Precipitation Wind Pressure Humidity
    00:00 +18°C° 0 mm 0 mps 659 mmHg 93%
    01:00 +17°C° 0 mm 0 mps 659 mmHg 93%
    02:00 +17°C° 0 mm 0 mps 658 mmHg 93%
    03:00 +17°C° 0 mm 0 mps 658 mmHg 93%
    04:00 +17°C° 0 mm 0 mps 658 mmHg 94%
    05:00 +16°C° 0 mm 0 mps 658 mmHg 94%
    06:00 +18°C° 0 mm 0 mps 659 mmHg 91%
    07:00 +19°C° 0 mm 0 mps 660 mmHg 88%
    08:00 +20°C° 0 mm 0 mps 660 mmHg 85%
    09:00 +22°C° 0 mm 0 mps 661 mmHg 78%
    10:00 +26°C° 0 mm 1 mps 661 mmHg 72%
    11:00 +28°C° 0 mm 1 mps 661 mmHg 65%
    12:00 +28°C° 0.2 mm 1 mps 660 mmHg 65%
    13:00 +28°C° 0.2 mm 1 mps 660 mmHg 66%
    14:00 +28°C° 0.2 mm 1 mps 659 mmHg 66%
    15:00 +24°C° 0.2 mm 0 mps 659 mmHg 73%
    16:00 +22°C° 0.2 mm 0 mps 658 mmHg 80%
    17:00 +21°C° 0.2 mm 0 mps 658 mmHg 87%
    18:00 +20°C° 0.2 mm 0 mps 658 mmHg 88%
    19:00 +20°C° 0.2 mm 0 mps 659 mmHg 89%
    20:00 +21°C° 0.2 mm 1 mps 659 mmHg 90%
    21:00 +21°C° 0 mm 1 mps 659 mmHg 89%
    22:00 +18°C° 0 mm 0 mps 659 mmHg 89%
    23:00 +18°C° 0 mm 0 mps 659 mmHg 88%

    23 November, Saturday

    Time Temperature Precipitation Wind Pressure Humidity
    00:00 +18°C° 0 mm 0 mps 659 mmHg 89%
    01:00 +17°C° 0 mm 0 mps 658 mmHg 90%
    02:00 +17°C° 0 mm 0 mps 658 mmHg 91%
    03:00 +17°C° 0 mm 0 mps 658 mmHg 92%
    04:00 +17°C° 0 mm 0 mps 658 mmHg 92%
    05:00 +17°C° 0 mm 0 mps 658 mmHg 93%
    06:00 +18°C° 0 mm 0 mps 659 mmHg 91%
    07:00 +19°C° 0 mm 0 mps 660 mmHg 89%
    08:00 +20°C° 0 mm 0 mps 660 mmHg 87%
    09:00 +24°C° 0.2 mm 1 mps 661 mmHg 81%
    10:00 +26°C° 0.2 mm 1 mps 661 mmHg 75%
    11:00 +27°C° 0.2 mm 1 mps 661 mmHg 69%
    12:00 +27°C° 0.8 mm 1 mps 660 mmHg 70%
    13:00 +27°C° 0.8 mm 1 mps 660 mmHg 71%
    14:00 +27°C° 0.8 mm 1 mps 659 mmHg 73%
    15:00 +25°C° 0.6 mm 1 mps 659 mmHg 78%
    16:00 +22°C° 0.6 mm 0 mps 659 mmHg 84%
    17:00 +21°C° 0.6 mm 0 mps 659 mmHg 90%
    18:00 +22°C° 0.5 mm 1 mps 659 mmHg 91%
    19:00 +22°C° 0.5 mm 1 mps 659 mmHg 92%
    20:00 +21°C° 0.5 mm 1 mps 660 mmHg 93%
    21:00 +21°C° 0.5 mm 1 mps 660 mmHg 93%
    22:00 +20°C° 0.5 mm 1 mps 660 mmHg 93%
    23:00 +20°C° 0.5 mm 1 mps 660 mmHg 93%
    Show more